{"data":{"norad_id":60933,"intl_designator":"2024-155K","name":"STARLINK-11207 [DTC]","alt_names":[],"object_type":"PAYLOAD","status":"ACTIVE","operator":null,"country":"US","launch_date":"2024-08-31","launch_site_code":"AFWTR","launch_vehicle":null,"mission":null,"orbit_class":"UNKNOWN","rcs_meters":null,"size_class":null,"mass_kg":null,"dimensions":null,"purposes":["comms"],"wikipedia_slug":null,"has_3d_model":false,"image_url":null,"decayed_at":null,"tle_current":{"epoch":"2026-05-25T04:55:49.780992Z","epoch_age_seconds":60408,"freshness":"FRESH","line1":"1 60933U 24155K   26145.20543728  .00002334  00000+0  24108-4 0  9997","line2":"2 60933  53.1576 323.7895 0000899  55.2090 304.9013 15.69714777100425","mean_motion":15.69714777,"eccentricity":8.99e-5,"inclination_deg":53.1576,"raan_deg":323.7895,"arg_perigee_deg":55.209,"mean_anomaly_deg":304.9013,"bstar":2.4108e-5,"rev_number":10042,"period_min":91.736411040998,"perigee_km":359.10734778675,"apogee_km":360.31881323123,"semimajor_km":6737.850080509,"source":"CELESTRAK","updated_at":"2026-05-25T13:38:19.318952Z"}}}